Location: Gellin
(53.4498°N, 14.3207°E)
Time: 01:54:24
(UTC+00:00)

Cosmos 1844 Rocket - Pass Details

Date: 03 March 2021
Orbit: 826 x 843 km, 71.0° (Epoch: 11 April)

Event Time Altitude Azimuth Distance (km) Brightness Sun altitude
Rises 18:20:57 0° 326° (NW) 3,378 6.5 -15.1°
Reaches altitude 10° 18:23:25 10° 323° (NW) 2,440 5.8 -15.4°
Maximum altitude 18:28:54 60° 245° (WSW) 941 3.2 -16.3°
Drops below altitude 10° 18:34:21 10° 166° (SSE) 2,425 4.8 -17.0°
Enters shadow 18:36:04 - 164° (SSE) 3,075 5.3 -17.3°
